Regional Weather Roundup
Issued by NWS

Home | Current Version | Previous Version | Text Only | Print | Product List | Glossary Off
Versions: 1 2 3 4 5 6 7 8 9 10 11 12 13 14 15 16 17 18 19 20 21 22 23 24 25 26 27 28 29 30 31 32 33 34 35 36 37 38 39 40 41 42 43 44 45 46 47 48 49 50

000
ASUS45 KPSR 260810
RWRAZ

ARIZONA REGIONAL HOURLY WEATHER ROUNDUP
NATIONAL WEATHER SERVICE PHOENIX AZ
100 AM MST MON JAN 26 2015

NOTE: FAIR INDICATES FEW OR NO CLOUDS BELOW 12,000 FEET WITH NO
SIGNIFICANT WEATHER AND/OR OBSTRUCTIONS TO VISIBILITY.

AZZ001>003-036-260900-
NORTHWEST ARIZONA

CITY           SKY/WX    TMP DP  RH WIND       PRES   REMARKS
BULLHEAD CITY  CLEAR     66  32  28 N7        30.11R
KINGMAN        PTCLDY    44  25  47 E7        30.20S
$$

AZZ004>008-015-016-018-260900-
NORTH CENTRAL ARIZONA

CITY           SKY/WX    TMP DP  RH WIND       PRES   REMARKS
GRAND CANYON   CLEAR     28  20  71 E3        30.35F
PRESCOTT       PTCLDY    40  21  46 CALM      30.27S
FLAGSTAFF      CLEAR     40  21  46 E6        30.34F
PAYSON         CLEAR     48  21  34 SE5       30.29S
$$

AZZ009>014-017-260900-
NORTHEAST ARIZONA

CITY           SKY/WX    TMP DP  RH WIND       PRES   REMARKS
WINSLOW        CLEAR     28  24  85 SE6       30.32F WCI  22
SAINT JOHNS    CLEAR     31  22  69 S7        30.32F WCI  24
WINDOW ROCK    CLEAR     26  21  81 MISG      30.35F
SHOW LOW       CLEAR     28  19  69 CALM      30.36F
$$

AZZ023-260900-
GREATER PHOENIX AREA

CITY           SKY/WX    TMP DP  RH WIND       PRES   REMARKS
PHOENIX        MOCLDY    56  31  38 E3        30.10R
BUCKEYE          N/A     48  23  37 N5        30.11S
LUKE AFB       NOT AVBL
DEER VALLEY    PTCLDY    57  27  31 NE5       30.11S
SCOTTSDALE     PTCLDY    53  30  41 CALM      30.12S
MESA-GATEWAY   MOCLDY    46  28  49 SE3       30.13S
$$

AZZ027-028-260900-
SOUTHWEST MARICOPA COUNTY AND PINAL COUNTY

CITY           SKY/WX    TMP DP  RH WIND       PRES   REMARKS
CASA GRANDE    CLOUDY    50  19  29 CALM      30.12S
GILA BEND      FAIR      51  22  32 W1        30.08S
$$

AZZ503-504-507>509-260900-
SOUTHEAST ARIZONA

CITY           SKY/WX    TMP DP  RH WIND       PRES   REMARKS
TUCSON         CLOUDY    53  23  31 SE7       30.16F
DAVIS-MONTHAN  CLOUDY    58  22  25 E9        30.14F
NOGALES        CLOUDY    51  26  37 NE3       30.19F
SIERRA VISTA   MOCLDY    52  19  28 CALM      30.23F
DOUGLAS        CLOUDY    42  19  39 CALM      30.24S
SAFFORD        CLOUDY    48  25  40 S7        30.23S
$$

AZZ020-021-025-026-031-260900-
SOUTHWEST ARIZONA

CITY           SKY/WX    TMP DP  RH WIND       PRES   REMARKS
YUMA           MOCLDY    60  30  32 CALM      30.05F
$$

CAZ031-033-041-043-047-048-061-260900-
SOUTHERN CALIFORNIA

CITY           SKY/WX    TMP DP  RH WIND       PRES   REMARKS
DOWNTOWN L.A.  CLOUDY    64  34  32 CALM      30.03S
L.A. AIRPORT   CLOUDY    66  32  28 CALM      30.03S
SAN DIEGO      CLOUDY    63  35  35 N3        30.03F
BURBANK        CLOUDY    61  35  37 CALM      30.05S
ONTARIO        MOCLDY    61  32  33 NE6       30.06S
RIVERSIDE      MOCLDY    59  31  34 CALM      30.06F
PALM SPRINGS   CLOUDY    63  31  30 NW7       30.08F
EL CENTRO NAS  CLOUDY    57  26  30 NW5       30.04F
IMPERIAL       CLOUDY    57  30  35 CALM      30.04F
BLYTHE         CLOUDY    52  30  43 NE7       30.08S
NEEDLES        CLEAR     60  31  33 NW7       30.10S
$$

NVZ020-UTZ003-260900-
SOUTHERN NEVADA-UTAH

CITY           SKY/WX    TMP DP  RH WIND       PRES   REMARKS
LAS VEGAS      MOCLDY    56  33  42 S7        30.14S
SALT LAKE CITY CLEAR     32  28  85 CALM      30.41F
$$

NMZ009-TXZ055-260900-
NEW MEXICO-WEST TEXAS

CITY           SKY/WX    TMP DP  RH WIND       PRES   REMARKS
ALBUQUERQUE    PTCLDY    34  23  64 CALM      30.34S
EL PASO        MOCLDY    40  30  67 N8        30.30R WCI  34
$$


........................KEY........................
SKY/WX - SKY CONDITION/WEATHER
TMP    - TEMPERATURE IN FAHRENHEIT
DP     - DEW POINT IN FAHRENHEIT
RH     - RELATIVE HUMIDITY IN PERCENT
WIND   - DIRECTION AND SPEED IN MILES PER HOUR (MPH)
VRB    - VARIABLE WIND DIRECTION
PRES   - MEAN SEA LEVEL PRESSURE IN INCHES OF MERCURY
         F - FALLING PRESSURE   R - RISING PRESSURE
         S - STEADY PRESSURE
VSB    - VISIBILITY IN MILES
HX     - HEAT INDEX IN FAHRENHEIT
WCI    - WIND CHILL INDEX IN FAHRENHEIT
TC     - TEMPERATURE IN CELSIUS WHICH IS ALSO KNOWN AS
         TEMPERATURE IN CENTIGRADE
AFB    - AIR FORCE BASE
         LUKE AFB IS LUKE AIR FORCE BASE
         DAVIS-MONTHAN IS DAVIS-MONTHAN AIR FORCE BASE
NAS    - NAVAL AIR STATION
         EL CENTRO NAS IS EL CENTRO NAVAL AIR STATION
N/A    - NOT AVAILABLE


USA.gov is the U.S. government's official web portal to all federal, state and local government web resources and services.